Погода в Соловецком

Россия / Архангельская область     65°01′36″N   35°42′32″E
темп.,
°C
ветер,
м/с
пор.,
м/с
влажн.,
%
обл.,
%
осадки,
мм/ч
давл.,
гПа
погр.,
м
11 мая, вт
вт1100:00+4ююз71094100 0.1 101792
03:00+4юз6799100 0.6 101760
06:00+4ю44100100 2.0 101719
09:00+5ююз69100100 5.3 101762
12:00+5ю799779 0.2 101749
15:00+6ю7794100 0.2 101730
18:00+8ююз778797 0.0 101738
21:00+8ююз8888100 0.0 101740
12 мая, ср
ср1200:00+8юз81190100 0.0 101854
03:00+7юз8109395 0.0 101951
06:00+6зюз66969 0.0 102132
09:00+6зюз339719 0.0 102211
12:00+7юв449648 0.0 102310
15:00+6вюв5596100 0.0 102321
18:00+6вюв459138 0.0 102126
21:00+8ю89770 0.0 102144
13 мая, чт
чт1300:00+7ююз78850 0.0 102143
03:00+6ююз66900 0.0 102035
06:00+6ююз66904 0.0 101935
09:00+6ююз668769 0.0 101933
12:00+7ю66830 0.0 101921
15:00+7ююв66822 0.0 101821
18:00+8ююв66783 0.0 101624
21:00+8ю66760 0.0 101532
14 мая, пт
пт1400:00+8ю66810 0.0 101527
03:00+7ю55965 0.3 101415
06:00+6ю559925 0.0 101318
09:00+5ююв5510079 0.3 101225
12:00+5ююв55100100 0.3 101232
15:00+6ю66100100 2.3 101138
18:00+8ююз9149284 1.1 101171
21:00+8з448811 1.1 101212
15 мая, сб
сб1500:00+6ю559426 0.0 101214
03:00+7юз338779 0.0 101210
06:00+6ю3391100 0.0 101210
09:00+5ю339097 0.0 101210
12:00+4в449758 0.0 101231
15:00+3св81099100 0.0 101183
18:00+3всв111695100 0.0 1010126
21:00+2всв121795100 0.0 1008189